Location: Unspecified
(0.0000°N, 0.0000°E)
Time: 00:52:34
(UTC+00:00)

Tiangong - Visible Passes

Search period start: 02 October 2022 00:00
Search period end: 12 October 2022 00:00
Orbit: 381 x 385 km, 41.5° (Epoch: 01 October)

Date Brightness Start Highest point End Pass type
(mag) Time Alt. Az. Time Alt. Az. Time Alt. Az.
02 Oct -1.9 18:12:32 10° SW 18:15:40 68° NW 18:18:47 10° NE visible
04 Oct 0.1 04:43:00 10° N 04:45:34 22° NE 04:48:08 10° E visible
05 Oct -1.5 05:19:11 10° WNW 05:22:09 38° SW 05:25:08 10° SSE visible
06 Oct -1.6 04:22:25 58° E 04:22:25 58° E 04:25:12 10° SE visible
07 Oct -0.2 04:58:09 15° SW 04:58:38 15° SW 05:00:35 10° S visible
